Regional Weather Roundup
Issued by NWS

Home | Current Version | Previous Version | Graphics & Text | Print | Product List | Glossary On
Versions: 1 2 3 4 5 6 7 8 9 10 11 12 13 14 15 16 17 18 19 20 21 22 23 24 25 26 27 28 29 30 31 32 33 34 35 36 37 38 39 40 41 42 43 44 45 46 47 48 49 50
000
ASUS43 KLOT 291006
RWRIL

ILLINOIS REGIONAL WEATHER ROUNDUP
NATIONAL WEATHER SERVICE CHICAGO/ROMEOVILLE IL
500 AM CDT TUE JUL 29 2014

NOTE: "FAIR" INDICATES FEW OR NO CLOUDS BELOW 12,000 FEET WITH NO
SIGNIFICANT WEATHER AND/OR OBSTRUCTIONS TO VISIBILITY.

* THESE STATIONS ARE NOT UNDER NWS QUALITY CONTROL. THEY ALSO MAY NOT
  REPORT WEATHER SUCH AS PRECIPITATION OR FOG.

ILZ001-002-007-009-015-016-024-291100-
NORTHWEST ILLINOIS

CITY           SKY/WX    TMP DP  RH WIND       PRES   REMARKS
MOLINE         CLEAR     53  50  89 SW3       30.10S
STERLING*      CLEAR     54  50  87 NW5       30.08S
SAVANNA*       CLEAR     53  52  94 CALM      30.08S
$$

ILZ003-004-008-010-011-017-018-291100-
NORTH CENTRAL ILLINOIS

CITY           SKY/WX    TMP DP  RH WIND       PRES   REMARKS
ROCKFORD       PTCLDY    56  51  84 CALM      30.07F
FREEPORT*      CLEAR     53  50  89 W7        30.09S
ROCHELLE*      CLEAR     49  48  94 SW6       30.07S
DE KALB*       CLEAR     54  50  88 W7        30.06S
PERU*          CLEAR     56  52  88 NW8       30.08S
$$

ILZ005-006-012>014-019>023-291100-
NORTHEAST ILLINOIS

CITY           SKY/WX    TMP DP  RH WIND       PRES   REMARKS
CHICAGO-OHARE  CLEAR     60  51  72 W5        30.03S
CHICAGO-MIDWAY CLEAR     60  53  77 W5        30.03S
AURORA         CLEAR     52  49  89 W5        30.05S
LANSING*       CLEAR     52  49  90 S3        30.04S
JOLIET*        CLEAR     57  52  82 CALM      30.06S
WAUKEGAN       PTCLDY    57  53  86 VRB3      30.01F
DUPAGE AIRPORT CLEAR     57  52  83 W5        30.04S
KANKAKEE*      CLEAR     54  52  94 W6        30.06S
WHEELING       CLEAR     60  53  77 NW3       30.04S
MORRIS*        CLEAR     55  54  95 W5        30.05S
ROMEOVILLE*    CLEAR     55  52  88 W5        30.04F
NORTHERLY ISL    N/A     62  52  69 SW1         N/A
$$

LMZ740>746-291100-
SOUTHERN LAKE MICHIGAN

STATION/POSITION SKY/WX   TEMP    WIND        PRES    VSBY  WAVE
                          AIR SEA DIR/SP/G                  HT/PER
                          (F)     (DEG/KT/KT) (MB)    (MI)  (FT/S)
SOUTHERN BUOY              61 60  230/ 10/ 12 1016.0F         1/ 6
WAUKEGAN HARBOR            62     280/  9/ 11   N/A
HARRISON CRIB              63     270/  5/  5   N/A
BURNHAM HARBOR             62     230/  3/  6   N/A
CALUMET HARBOR             59     210/  3/  4 1015.8S
MICHIGAN CITY              57     170/  5/  6   N/A
MICHIGAN CITY 6N           63 67  210/  8/ 12   N/A           2/ 5
ST. JOSEPH                 63 66  230/  6/  8   N/A           2/ 5
$$

ILZ025>027-034>036-040-047-049-050-058-095>099-291100-
WEST-CENTRAL ILLINOIS

CITY           SKY/WX    TMP DP  RH WIND       PRES   REMARKS
QUINCY         CLEAR     57  55  93 W3        30.14R
GALESBURG*     CLEAR     53  53  99 W3        30.12R
MACOMB*        CLEAR     52  52 100 W5        30.14R
JACKSONVILLE*  CLEAR     54  52  95 SW5       30.14R
PITTSFIELD*    CLEAR     56  52  88 W5        30.14S
$$

ILZ028>032-037-038-041>044-048-051>054-059>061-291100-
CENTRAL ILLINOIS

CITY           SKY/WX    TMP DP  RH WIND       PRES   REMARKS
PONTIAC        PTCLDY    55  55 100 CALM      30.07S
DECATUR        CLEAR     60  52  74 NW7       30.10R
PEORIA         CLEAR     59  52  77 CALM      30.10S
LACON*         CLEAR     55  50  83 CALM      30.08S
LINCOLN*       CLEAR     57  53  85 CALM      30.09S
SPRINGFIELD    CLEAR     53  50  89 SW5       30.12R
TAYLORVILLE    CLEAR     50  50 100 CALM      30.11S
$$

ILZ033-039-045-046-055>057-062-063-291100-
EAST-CENTRAL ILLINOIS

CITY           SKY/WX    TMP DP  RH WIND       PRES   REMARKS
CHAMPAIGN      PTCLDY    53  52  96 W6        30.09R
DANVILLE*      CLEAR     51  51  98 SW5       30.04R
RANTOUL*       MOCLDY    56  52  85 W8        30.08S
MATTOON        CLEAR     55  51  86 W8        30.09R
PARIS*         CLOUDY    55  53  94 CALM      30.08S
$$

ILZ079-100>102-291100-
SOUTHWEST ILLINOIS

CITY           SKY/WX    TMP DP  RH WIND       PRES   REMARKS
ALTON          CLEAR     53  53 100 W3        30.13S
BELLEVILLE     CLEAR     54  54  99 CALM      30.12S
CAHOKIA*       CLEAR     52  51  97 CALM      30.13R
SPARTA*        CLEAR     54  52  94 CALM      30.14R
$$

ILZ064>066-069>071-074>076-080>082-084>086-088>090-092>094-291100-
SOUTH-CENTRAL ILLINOIS

CITY           SKY/WX    TMP DP  RH WIND       PRES   REMARKS
CARBONDALE     CLEAR     55  53  93 NW3       30.12R
CAIRO*         CLEAR     61  56  83 NW3       30.11R
EFFINGHAM*     CLEAR     53  49  86 W5        30.10S
MARION         CLEAR     55  54  94 CALM      30.12R
MT. VERNON     CLEAR     52  48  87 CALM      30.12R
CENTRALIA*     CLEAR     50  48  94 CALM      30.12R
SALEM*         CLEAR    N/A N/A N/A CALM      30.12R
METROPOLIS*    CLEAR     55  53  91 N3        30.10R
$$

ILZ067-068-072-073-078-083-087-091-291100-
SOUTHEAST ILLINOIS

CITY           SKY/WX    TMP DP  RH WIND       PRES   REMARKS
LAWRENCEVILLE  PTCLDY    54  51  90 NW6       30.10R
FLORA*         CLEAR     55  52  88 NW6       30.10S
FAIRFIELD*     CLEAR     54  52  94 CALM      30.11R
HARRISBURG*    CLEAR     54  54 100 CALM      30.12R
ROBINSON*      MOCLDY    53  52  97 CALM      30.10R
CARMI*         CLEAR     55  54  94 W3        30.10R
$$

ABBREVIATIONS USED IN REMARKS
   TC - TEMPERATURE IN CELSIUS
  WCI - WIND CHILL INDEX
   HX - HEAT INDEX
  VSB - VISIBILITY
$$



USA.gov is the U.S. government's official web portal to all federal, state and local government web resources and services.